TIANMU-1 20

Last updated on Thu Nov 21 2024 00:02:20 GMT+0000 (Coordinated Universal Time)

1 58661U 23208B 24325.55163469 .00012388 00000+0 57467-3 0 9999 2 58661 97.4134 74.5540 0009150 184.7654 175.3495 15.20150794 49899
UTC large
Height (km)
Speed (km/s)
/
Latitude / Longitude
Inclination (degrees)
Orbital Period (minutes)
Azimuth
Elevation
Range (km)
Doppler Factor

Next 0 passes for location: London (51.5072 / 0.1276)

Sorry there are no passes over London.